Location: Ch�risy
(50.2331°N, 2.9131°E)
Time: 18:54:55
(UTC+00:00)

ATLAS 2AS CENTAUR R/B - Pass Details

Date: 17 January 2021
Orbit: 947 x 1265 km, 63.7° (Epoch: 13 February)

Event Time Altitude Azimuth Distance (km) Brightness Sun altitude
Rises 18:32:29 0° 247° (WSW) 4,214 7.2 -21.0°
Reaches altitude 10° 18:35:26 10° 253° (WSW) 3,251 6.3 -21.5°
Maximum altitude 18:43:04 49° 327° (NNW) 1,565 3.7 -22.7°
Enters shadow 18:48:01 22° 33° (NNE) 2,401 4.2 -23.5°
